This is the latest recevied weather packets stored in our database for station/object OK0EK-12. If no packets are shown the sender has not sent any weather packets the latest 10 day(s).
| Time | Temp. | Humidity | Pressure | Rain* | Wind** | Luminosity | Snow |
|---|---|---|---|---|---|---|---|
| 1777570490 | 11.67° C | 34% | 1106.8 hPa | - | - | - | - |
| 1777569889 | 12.22° C | 33% | 1106.8 hPa | - | - | - | - |
| 1777569288 | 12.22° C | 32% | 1106.8 hPa | - | - | - | - |
| 1777568688 | 12.78° C | 31% | 1106.8 hPa | - | - | - | - |
| 1777568087 | 12.78° C | 31% | 1106.7 hPa | - | - | - | - |
| 1777567486 | 13.33° C | 29% | 1106.8 hPa | - | - | - | - |
| 1777566886 | 13.33° C | 29% | 1106.7 hPa | - | - | - | - |
| 1777566285 | 13.89° C | 28% | 1106.7 hPa | - | - | - | - |
| 1777565684 | 14.44° C | 27% | 1106.7 hPa | - | - | - | - |
| 1777565083 | 15° C | 26% | 1106.6 hPa | - | - | - | - |
| 1777564482 | 15.56° C | 25% | 1106.7 hPa | - | - | - | - |
| 1777563882 | 16.67° C | 23% | 1106.8 hPa | - | - | - | - |
| 1777563288 | 17.78° C | 21% | 1106.8 hPa | - | - | - | - |
| 1777562680 | 18.33° C | 21% | 1106.8 hPa | - | - | - | - |
| 1777562079 | 17.78° C | 21% | 1106.8 hPa | - | - | - | - |
| 1777561479 | 19.44° C | 20% | 1106.9 hPa | - | - | - | - |
| 1777560878 | 17.78° C | 21% | 1107 hPa | - | - | - | - |
| 1777560277 | 18.33° C | 20% | 1107.1 hPa | - | - | - | - |
| 1777559677 | 17.78° C | 21% | 1107.1 hPa | - | - | - | - |
| 1777559080 | 19.44° C | 19% | 1107 hPa | - | - | - | - |
| 1777558481 | 20° C | 20% | 1107.2 hPa | - | - | - | - |
| 1777557882 | 19.44° C | 20% | 1107.2 hPa | - | - | - | - |
| 1777557284 | 18.89° C | 20% | 1107.3 hPa | - | - | - | - |
| 1777556693 | 19.44° C | 19% | 1107.4 hPa | - | - | - | - |
| 1777556087 | 20.56° C | 18% | 1107.4 hPa | - | - | - | - |
* Rain since midnight (hover to see other rain measurements)
** Current wind speed in m/s (hover to see current wind gust speed)